FW9191 Weather Reports


time (UTC)temp
F
wind
direction
speed
knots
gust
knots
rain 1hr
in
rain 24hr
in
rain mn
in
humidity
%
barometer
mb
20260507025927 59 163 0.9 0.9 0.00 0.00 0.00 10 1007.0
20260507025424 59 167 0.0 0.0 0.00 0.00 0.00 10 1007.0
20260507024922 60 118 0.0 0.0 0.00 0.00 0.00 10 1007.1
20260507024419 60 138 1.7 2.6 0.00 0.00 0.00 10 1007.1
20260507023914 60 178 0.9 0.9 0.00 0.00 0.00 10 1007.1
20260507023412 60 217 1.7 2.6 0.00 0.00 0.00 10 1007.2
20260507022909 61 167 1.7 1.7 0.00 0.00 0.00 10 1007.1
20260507022405 61 151 0.0 0.0 0.00 0.00 0.00 10 1007.1
20260507021901 61 90 2.6 2.6 0.00 0.00 0.00 10 1006.8
20260507021356 62 79 2.6 2.6 0.00 0.00 0.00 10 1006.9
20260507020855 62 115 2.6 2.6 0.00 0.00 0.00 10 1006.8
20260507020351 62 50 2.6 4.3 0.00 0.00 0.00 10 1006.6
20260507015848 63 67 3.5 5.2 0.00 0.00 0.00 10 1006.6
20260507015346 63 69 1.7 2.6 0.00 0.00 0.00 10 1006.4
20260507014843 63 69 2.6 4.3 0.00 0.00 0.00 10 1006.4
20260507014339 64 88 2.6 4.3 0.00 0.00 0.00 10 1006.4
20260507013836 64 34 3.5 4.3 0.00 0.00 0.00 10 1006.6
20260507013333 64 95 6.1 7.0 0.00 0.00 0.00 10 1006.4
20260507012831 65 185 0.9 0.9 0.00 0.00 0.00 10 1006.3
20260507012326 65 119 0.0 0.9 0.00 0.00 0.00 10 1006.3
20260507011823 66 155 2.6 2.6 0.00 0.00 0.00 10 1006.3
20260507011320 65 92 2.6 2.6 0.00 0.00 0.00 10 1006.3
20260507010820 65 170 1.7 1.7 0.00 0.00 0.00 10 1006.2
20260507010315 65 141 0.0 0.9 0.00 0.00 0.00 10 1006.2
20260507005813 65 287 3.5 4.3 0.00 0.00 0.00 10 1006.2
20260507005310 65 54 4.3 6.1 0.00 0.00 0.00 10 1006.2
20260507004807 65 33 4.3 6.1 0.00 0.00 0.00 10 1006.1
20260507004304 65 112 2.6 4.3 0.00 0.00 0.00 10 1006.1
20260507003800 65 94 2.6 2.6 0.00 0.00 0.00 10 1006.2
20260507003256 65 68 4.3 6.1 0.00 0.00 0.00 10 1006.0
20260507002752 65 313 3.5 4.3 0.00 0.00 0.00 10 1006.1
20260507002248 65 23 4.3 5.2 0.00 0.00 0.00 10 1006.1
20260507001745 65 205 1.7 2.6 0.00 0.00 0.00 10 1006.0
20260507001242 66 64 3.5 5.2 0.00 0.00 0.00 10 1005.9
20260507000738 66 69 1.7 1.7 0.00 0.00 0.00 10 1005.9
20260507000234 66 180 2.6 2.6 0.00 0.00 0.00 10 1005.7
20260506235731 66 33 7.0 8.7 0.00 0.00 0.00 10 1005.7
20260506235227 66 30 6.1 7.0 0.00 0.00 0.00 10 1005.5
20260506234724 67 3 9.6 11.3 0.00 0.00 0.00 10 1005.5
20260506234221 67 42 5.2 6.1 0.00 0.00 0.00 10 1005.2
20260506233719 68 77 5.2 7.0 0.00 0.00 0.00 10 1005.3
20260506233215 68 52 5.2 6.1 0.00 0.00 0.00 10 1005.1
20260506232711 68 80 3.5 4.3 0.00 0.00 0.00 10 1005.4
20260506232206 68 179 1.7 1.7 0.00 0.00 0.00 10 1005.4
20260506231704 68 171 1.7 1.7 0.00 0.00 0.00 10 1005.2
20260506231203 68 183 0.9 0.9 0.00 0.00 0.00 10 1005.3
20260506230658 68 182 2.6 2.6 0.00 0.00 0.00 10 1005.4
20260506230155 68 34 4.3 5.2 0.00 0.00 0.00 10 1005.2
20260506225652 68 67 3.5 5.2 0.00 0.00 0.00 10 1005.1
20260506225149 68 101 5.2 7.0 0.00 0.00 0.00 10 1005.2
20260506224645 68 73 2.6 2.6 0.00 0.00 0.00 10 1005.3
20260506224142 68 46 2.6 4.3 0.00 0.00 0.00 10 1005.3
20260506223639 68 46 3.5 5.2 0.00 0.00 0.00 10 1005.4
20260506223134 68 154 2.6 4.3 0.00 0.00 0.00 10 1005.3
20260506222632 68 91 6.1 7.8 0.00 0.00 0.00 10 1005.3
20260506222128 68 144 5.2 6.1 0.00 0.00 0.00 10 1005.3
20260506221626 68 58 6.1 7.0 0.00 0.00 0.00 10 1005.4
20260506221123 69 76 2.6 4.3 0.00 0.00 0.00 10 1005.3
20260506220620 69 98 9.6 9.6 0.00 0.00 0.00 10 1005.3
20260506220115 69 111 7.8 8.7 0.00 0.00 0.00 10 1005.5
20260506215612 70 110 1.7 2.6 0.00 0.00 0.00 10 1005.9
20260506215107 71 26 3.5 4.3 0.00 0.00 0.00 10 1005.9
20260506214604 71 257 5.2 7.0 0.00 0.00 0.00 10 1005.8
20260506214102 72 231 2.6 4.3 0.00 0.00 0.00 10 1005.9
20260506213600 70 191 2.6 4.3 0.00 0.00 0.00 10 1005.4
20260506213057 71 272 12.2 15.6 0.00 0.00 0.00 10 1005.7
20260506212554 71 218 7.8 8.7 0.00 0.00 0.00 10 1005.5
20260506212048 71 214 9.6 11.3 0.00 0.00 0.00 10 1005.7
20260506211545 72 195 7.0 9.6 0.00 0.00 0.00 10 1005.7
20260506211042 72 287 8.7 9.6 0.00 0.00 0.00 10 1005.7
20260506210538 71 179 0.9 1.7 0.00 0.00 0.00 10 1005.8
20260506210035 71 286 7.8 8.7 0.00 0.00 0.00 10 1005.8
20260506205532 71 172 5.2 6.1 0.00 0.00 0.00 10 1005.9
20260506205027 70 195 1.7 1.7 0.00 0.00 0.00 10 1006.1
20260506204525 70 165 5.2 7.0 0.00 0.00 0.00 10 1006.0
20260506204022 70 182 1.7 2.6 0.00 0.00 0.00 10 1006.0
20260506203520 70 265 7.0 7.8 0.00 0.00 0.00 10 1005.9
20260506203016 70 230 7.8 11.3 0.00 0.00 0.00 10 1006.1
20260506202514 70 178 2.6 4.3 0.00 0.00 0.00 10 1006.1
20260506202010 70 194 4.3 6.1 0.00 0.00 0.00 10 1006.1
20260506201508 69 246 6.1 7.0 0.00 0.00 0.00 10 1006.0
20260506201004 69 264 3.5 4.3 0.00 0.00 0.00 10 1006.2
20260506200501 71 232 5.2 6.1 0.00 0.00 0.00 10 1006.2
20260506195957 71 229 5.2 6.1 0.00 0.00 0.00 10 1006.3
20260506195455 70 226 4.3 4.3 0.00 0.00 0.00 10 1006.2
20260506194950 69 210 3.5 4.3 0.00 0.00 0.00 10 1006.6
20260506194448 69 290 5.2 7.8 0.00 0.00 0.00 10 1006.7
20260506193944 69 285 7.8 8.7 0.00 0.00 0.00 10 1006.7
20260506193442 70 195 7.8 7.8 0.00 0.00 0.00 10 1006.2
20260506192938 70 189 2.6 2.6 0.00 0.00 0.00 10 1006.4
20260506192436 69 153 2.6 2.6 0.00 0.00 0.00 10 1006.4
20260506191932 69 159 0.0 0.0 0.00 0.00 0.00 10 1006.7
20260506191429 68 208 1.7 2.6 0.00 0.00 0.00 10 1006.7
20260506190925 69 237 3.5 4.3 0.00 0.00 0.00 10 1006.9
20260506190422 67 102 3.5 4.3 0.00 0.00 0.00 10 1006.8
20260506185919 67 82 5.2 7.0 0.00 0.00 0.00 10 1006.9
20260506185416 67 179 0.0 0.9 0.00 0.00 0.00 10 1006.9
20260506184913 68 200 7.0 8.7 0.00 0.00 0.00 10 1007.2
20260506184410 68 215 12.2 13.9 0.00 0.00 0.00 10 1007.3
20260506183907 64 196 3.5 4.3 0.00 0.00 0.00 10 1007.5
20260506183403 66 159 6.1 7.0 0.00 0.00 0.00 10 1007.5
20260506182900 66 191 6.1 7.8 0.00 0.00 0.00 10 1007.3
20260506182357 65 211 5.2 8.7 0.00 0.00 0.00 10 1007.5
20260506181854 64 188 5.2 8.7 0.00 0.00 0.00 10 1007.1
20260506181352 64 195 6.1 7.8 0.00 0.00 0.00 10 1007.6
20260506180848 64 206 6.1 8.7 0.00 0.00 0.00 10 1007.6
20260506180339 63 201 7.8 13.0 0.00 0.00 0.00 10 1007.7
20260506175835 63 179 9.6 13.0 0.00 0.00 0.00 10 1007.7
20260506175332 62 174 7.8 11.3 0.00 0.00 0.00 10 1007.8
20260506174829 62 196 11.3 13.9 0.00 0.00 0.00 10 1007.6
20260506174327 63 186 8.7 12.2 0.00 0.00 0.00 10 1008.1
20260506173824 63 178 9.6 11.3 0.00 0.00 0.00 10 1008.1
20260506173321 64 213 8.7 9.6 0.00 0.00 0.00 10 1008.1
20260506172818 63 197 7.8 8.7 0.00 0.00 0.00 10 1008.2
20260506172315 63 222 10.4 13.9 0.00 0.00 0.00 10 1008.1
20260506171812 62 210 8.7 12.2 0.00 0.00 0.00 10 1008.5
20260506171309 62 208 10.4 12.2 0.00 0.00 0.00 10 1008.3
20260506170807 62 203 11.3 13.9 0.00 0.00 0.00 10 1008.6
20260506170303 62 211 12.2 17.4 0.00 0.00 0.00 10 1008.6
20260506165802 61 214 13.0 17.4 0.00 0.00 0.00 10 1008.7
20260506165258 61 177 10.4 12.2 0.00 0.00 0.00 10 1008.8
20260506164755 60 192 7.8 9.6 0.00 0.00 0.00 10 1009.0
20260506164252 60 222 11.3 13.9 0.00 0.00 0.00 10 1009.0
20260506163749 59 149 10.4 14.8 0.00 0.00 0.00 10 1009.1
20260506163244 58 217 11.3 13.9 0.00 0.00 0.00 10 1009.0
20260506162740 58 222 11.3 13.0 0.00 0.00 0.00 10 1009.4
20260506162238 58 215 7.8 8.7 0.00 0.00 0.00 10 1009.1
20260506161735 58 223 11.3 13.0 0.00 0.00 0.00 10 1009.2
20260506161232 57 297 7.8 9.6 0.00 0.00 0.00 10 1009.4
20260506160730 56 245 11.3 13.0 0.00 0.00 0.00 10 1009.5
20260506160226 55 225 9.6 13.9 0.00 0.00 0.00 10 1009.5
20260506155724 55 202 7.8 9.6 0.00 0.00 0.00 10 1009.6
20260506155221 55 220 8.7 13.0 0.00 0.00 0.00 10 1009.5
20260506153329 53 201 9.6 11.3 0.00 0.00 0.00 10 1009.8
20260506152826 52 241 7.0 9.6 0.00 0.00 0.00 10 1010.0
20260506152323 52 154 15.6 18.2 0.00 0.00 0.00 10 1009.8
20260506151822 51 199 10.4 13.0 0.00 0.00 0.00 10 1010.0
20260506151318 51 218 6.1 7.8 0.00 0.00 0.00 10 1010.0
20260506150815 51 238 9.6 13.0 0.00 0.00 0.00 10 1010.1
20260506150312 50 211 16.5 19.1 0.00 0.00 0.00 10 1010.5
20260506145809 50 218 11.3 17.4 0.00 0.00 0.00 10 1010.3
20260506145306 49 214 9.6 11.3 0.00 0.00 0.00 10 1010.3
20260506144803 48 242 11.3 13.9 0.00 0.00 0.00 10 1010.6
20260506144259 47 241 4.3 8.7 0.00 0.00 0.00 10 1010.7
20260506143757 43 202 2.6 5.2 0.00 0.00 0.00 10 1010.8
20260506143254 41 184 0.9 1.7 0.00 0.00 0.00 10 1010.9
20260506142753 40 226 3.5 4.3 0.00 0.00 0.00 10 1010.6
20260506142250 39 192 1.7 1.7 0.00 0.00 0.00 10 1010.7
20260506141748 39 157 3.5 4.3 0.00 0.00 0.00 10 1010.9
20260506141247 37 232 3.5 5.2 0.00 0.00 0.00 10 1011.0
20260506140744 36 198 2.6 2.6 0.00 0.00 0.00 10 1011.2
20260506140240 35 224 2.6 2.6 0.00 0.00 0.00 10 1011.3
20260506135737 34 258 4.3 5.2 0.00 0.00 0.00 10 1011.2
20260506135233 33 289 3.5 4.3 0.00 0.00 0.00 10 1011.3
20260506134731 33 276 4.3 6.1 0.00 0.00 0.00 10 1011.5
20260506134227 32 175 2.6 4.3 0.00 0.00 0.00 10 1011.5
20260506133725 31 214 2.6 2.6 0.00 0.00 0.00 10 1011.5
20260506133221 30 348 3.5 4.3 0.00 0.00 0.00 10 1011.5
20260506132718 30 208 4.3 5.2 0.00 0.00 0.00 10 1011.7
20260506132215 30 159 2.6 2.6 0.00 0.00 0.00 10 1011.4
20260506131713 29 198 3.5 4.3 0.00 0.00 0.00 10 1011.4
20260506131208 28 223 2.6 2.6 0.00 0.00 0.00 10 1011.6
20260506130705 28 181 1.7 1.7 0.00 0.00 0.00 10 1011.4
20260506130202 28 180 3.5 4.3 0.00 0.00 0.00 10 1011.5
20260506125701 28 319 3.5 6.1 0.00 0.00 0.00 10 1011.5
20260506125158 27 180 1.7 2.6 0.00 0.00 0.00 10 1011.3
20260506124656 27 269 3.5 5.2 0.00 0.00 0.00 10 1011.4
20260506124154 27 253 5.2 6.1 0.00 0.00 0.00 10 1011.6
20260506123651 26 189 3.5 4.3 0.00 0.00 0.00 10 1011.6
20260506123150 26 275 2.6 2.6 0.00 0.00 0.00 10 1011.5
20260506122646 26 258 2.6 4.3 0.00 0.00 0.00 10 1011.4
20260506122144 26 170 2.6 2.6 0.00 0.00 0.00 10 1011.6
20260506121641 26 201 2.6 2.6 0.00 0.00 0.00 10 1011.5
20260506121137 26 233 2.6 4.3 0.00 0.00 0.00 10 1011.6
20260506120635 26 262 3.5 4.3 0.00 0.00 0.00 10 1011.7
20260506120132 25 245 2.6 2.6 0.00 0.00 0.00 10 1011.9
20260506115631 25 258 3.5 4.3 0.00 0.00 0.00 10 1011.7
20260506115129 26 264 3.5 5.2 0.00 0.00 0.00 10 1011.6
20260506114626 26 191 0.9 1.7 0.00 0.00 0.00 10 1011.8
20260506114124 26 174 1.7 1.7 0.00 0.00 0.00 10 1012.1
20260506113622 26 246 3.5 5.2 0.00 0.00 0.00 10 1012.1
20260506113119 26 330 1.7 4.3 0.00 0.00 0.00 10 1011.9
20260506112615 26 186 2.6 2.6 0.00 0.00 0.00 10 1012.2
20260506112113 26 239 2.6 2.6 0.00 0.00 0.00 10 1012.1
20260506111610 26 198 1.7 1.7 0.00 0.00 0.00 10 1012.2
20260506111108 26 178 2.6 2.6 0.00 0.00 0.00 10 1012.2
20260506110605 26 177 2.6 2.6 0.00 0.00 0.00 10 1012.3
20260506105558 26 179 1.7 1.7 0.00 0.00 0.00 10 1012.4
20260506105055 26 200 2.6 2.6 0.00 0.00 0.00 10 1012.5
20260506104553 26 188 2.6 2.6 0.00 0.00 0.00 10 1012.3
20260506104051 27 208 2.6 2.6 0.00 0.00 0.00 10 1012.5
20260506103548 27 183 0.9 0.9 0.00 0.00 0.00 10 1012.4
20260506103044 27 175 0.9 0.9 0.00 0.00 0.00 10 1012.5
20260506102543 27 193 0.9 1.7 0.00 0.00 0.00 10 1012.5
20260506102040 28 173 0.9 0.9 0.00 0.00 0.00 10 1012.6
20260506101537 28 173 0.0 0.0 0.00 0.00 0.00 10 1012.7
20260506101034 28 176 0.0 0.0 0.00 0.00 0.00 10 1012.4
20260506100532 28 172 0.0 0.0 0.00 0.00 0.00 10 1013.0
20260506100030 28 152 0.0 0.0 0.00 0.00 0.00 10 1012.7
20260506095528 28 156 0.0 0.0 0.00 0.00 0.00 10 1012.8
20260506095024 28 176 1.7 1.7 0.00 0.00 0.00 10 1013.0
20260506094522 28 145 0.9 0.9 0.00 0.00 0.00 10 1013.0
20260506094020 28 148 0.9 0.9 0.00 0.00 0.00 10 1013.0
20260506093518 28 172 0.0 0.0 0.00 0.00 0.00 10 1013.2
20260506093015 29 165 1.7 1.7 0.00 0.00 0.00 10 1013.2
20260506092513 30 147 0.9 1.7 0.00 0.00 0.00 10 1013.2
20260506092009 30 164 0.9 0.9 0.00 0.00 0.00 10 1013.3
20260506091508 30 167 0.9 0.9 0.00 0.00 0.00 10 1013.6
20260506091005 30 157 0.0 0.0 0.00 0.00 0.00 10 1013.6
20260506090503 31 144 1.7 1.7 0.00 0.00 0.00 10 1013.6
20260506085958 31 166 0.0 0.0 0.00 0.00 0.00 10 1013.4
20260506085455 31 132 0.9 1.7 0.00 0.00 0.00 10 1013.4
20260506084951 31 147 0.9 1.7 0.00 0.00 0.00 10 1013.4
20260506084449 32 149 0.9 0.9 0.00 0.00 0.00 10 1013.5
20260506083945 32 129 0.9 1.7 0.00 0.00 0.00 10 1013.7
20260506083442 32 156 0.0 0.0 0.00 0.00 0.00 10 1013.7
20260506082939 32 160 0.0 0.0 0.00 0.00 0.00 10 1013.6
20260506082436 33 165 0.0 0.0 0.00 0.00 0.00 10 1013.9
20260506081932 33 172 0.0 0.0 0.00 0.00 0.00 10 1013.7
20260506081431 33 163 0.9 0.9 0.00 0.00 0.00 10 1014.0
20260506080927 34 158 0.9 0.9 0.00 0.00 0.00 10 1014.0
20260506080424 34 154 0.9 0.9 0.00 0.00 0.00 10 1014.0
20260506073408 35 93 1.7 2.6 0.00 0.00 0.00 10 1014.4
20260506072906 35 148 2.6 2.6 0.00 0.00 0.00 10 1014.4
20260506072403 36 165 0.9 1.7 0.00 0.00 0.00 10 1014.3
20260506071900 36 155 4.3 5.2 0.00 0.00 0.00 10 1014.6
20260506071359 36 93 0.9 1.7 0.00 0.00 0.00 10 1014.8
20260506070855 37 147 0.9 0.9 0.00 0.00 0.00 10 1014.6
20260506070352 36 128 2.6 2.6 0.00 0.00 0.00 10 1014.5
20260506041323 39 101 1.7 1.7 0.00 0.00 0.00 10 1015.8
20260506040820 39 101 1.7 1.7 0.00 0.00 0.00 10 1015.8
20260506040318 39 42 1.7 1.7 0.00 0.00 0.00 10 1016.0
20260506035814 39 130 0.9 0.9 0.00 0.00 0.00 10 1016.2
20260506035311 39 89 1.7 1.7 0.00 0.00 0.00 10 1016.0
20260506034808 39 132 0.0 0.9 0.00 0.00 0.00 10 1015.9
20260506034305 40 98 2.6 2.6 0.00 0.00 0.00 10 1016.3
20260506033802 40 130 0.0 0.9 0.00 0.00 0.00 10 1016.0
20260506033259 41 119 0.9 0.9 0.00 0.00 0.00 10 1016.1
20260506032756 41 92 1.7 2.6 0.00 0.00 0.00 10 1016.2
20260506032253 41 85 1.7 2.6 0.00 0.00 0.00 10 1016.0
20260506031749 42 86 1.7 1.7 0.00 0.00 0.00 10 1016.0
20260506031247 44 151 0.9 0.9 0.00 0.00 0.00 10 1015.9
20260506030745 44 153 0.9 0.9 0.00 0.00 0.00 10 1016.0
20260506030243 44 132 1.7 2.6 0.00 0.00 0.00 10 1016.2